Volver al catálogo

TIGER-8

ActivoCienciaSSO
NORAD 59120·PAYLOAD·🇷🇼 Rwanda

Lanzado Mar 4, 2024 desde Vandenberg Space Force Base

Loading…

Próximos Pases (próximas 24 horas)

TLE

ActualizadoSource: Space-Track

Época: Sep 14, 2026, 09:05 UTC

1 59120U 24043Y   26257.37892399  .00008229  00000-0  16994-3 0  9995
2 59120  97.5657  49.6804 0006014 234.0815 125.9876 15.46109377141561

Sigue TIGER-8 en tiempo real con AllMySat

Download on the App Store